Overview Statistics Trail Chart Weather Telemetry Raw packets
 

This is the latest recevied weather packets stored in our database for station/object OE6JVE-13. If no packets are shown the sender has not sent any weather packets the latest 10 day(s).

<< 29 30 31 32 33 34 35 >>
Time Temp. Humidity Pressure Rain* Wind** Luminosity Snow
1788189648 30.56° C 35% 1004.9 hPa 0 mm - - -
1788189057 28.89° C 40% 1004.7 hPa 0 mm - - -
1788188465 31.11° C 33% 1004.6 hPa 0 mm - - -
1788187873 31.67° C 33% 1004.5 hPa 0 mm - - -
1788187280 31.11° C 36% 1004.6 hPa 0 mm - - -
1788186623 30° C 38% 1004.7 hPa 0 mm - - -
1788186030 31.11° C 34% 1004.6 hPa 0 mm - - -
1788185438 33.33° C 25% 1004.5 hPa 0 mm - - -
1788184846 33.33° C 25% 1004.6 hPa 0 mm - - -
1788184254 33.89° C 25% 1004.7 hPa 0 mm - - -
1788183662 34.44° C 25% 1004.7 hPa 0 mm - - -
1788183070 33.89° C 28% 1004.8 hPa 0 mm - - -
1788182478 33.89° C 26% 1004.9 hPa 0 mm - - -
1788181820 33.89° C 25% 1004.9 hPa 0 mm - - -
1788181228 33.33° C 26% 1005 hPa 0 mm - - -
1788180635 33.33° C 26% 1005.2 hPa 0 mm - - -
1788180048 33.33° C 26% 1005.1 hPa 0 mm - - -
1788179452 33.89° C 27% 1005.3 hPa 0 mm - - -
1788178859 33.33° C 29% 1005.4 hPa 0 mm - - -
1788178267 32.78° C 29% 1005.4 hPa 0 mm - - -
1788177675 32.78° C 28% 1005.6 hPa 0 mm - - -
1788177017 32.78° C 30% 1005.7 hPa 0 mm - - -
1788176425 32.22° C 31% 1005.8 hPa 0 mm - - -
1788175833 31.67° C 33% 1006 hPa 0 mm - - -
1788175240 32.22° C 34% 1006 hPa 0 mm - - -

* Rain latest hour (hover to see other rain measurements)
** Current wind speed in m/s (hover to see current wind gust speed)